Regional Weather Roundup
Issued by NWS

Home | Current Version | Previous Version | Graphics & Text | Print | Product List | Glossary On
Versions: 1 2 3 4 5 6 7 8 9 10 11 12 13 14 15 16 17 18 19 20 21 22 23 24 25 26 27 28
000
ASUS45 KBOI 212010
RWRID

IDAHO REGIONAL WEATHER ROUNDUP
NATIONAL WEATHER SERVICE BOISE ID
200 PM MDT SAT APR 21 2018

NOTE: "FAIR" INDICATES FEW OR NO CLOUDS BELOW 12000 FEET
WITH NO SIGNIFICANT WEATHER AND/OR OBSTRUCTIONS TO VISIBILITY

IDZ012-014-212100-
SOUTHWEST IDAHO


CITY           SKY/WX    TMP DP  RH WIND       PRES   REMARKS
BOISE          SUNNY     68  34  28 NW10      30.17F
CALDWELL       SUNNY     70  34  26 W10G17    30.17F
MOUNTAIN HOME  MOSUNNY   70  32  24 NW16G22   30.15F
$$

IDZ016-017-212100-
SOUTHCENTRAL IDAHO


CITY           SKY/WX    TMP DP  RH WIND       PRES   REMARKS
BURLEY         SUNNY     68  29  23 NW15G28   30.14F
JEROME         SUNNY     69  30  23 W20G29    30.16S
TWIN FALLS     SUNNY     68  30  24 W15G26    30.16F
$$

IDZ019>023-212100-
SOUTHEAST IDAHO


CITY           SKY/WX    TMP DP  RH WIND       PRES   REMARKS
IDAHO FALLS    SUNNY     62  30  29 SW14      30.15S
POCATELLO      SUNNY     68  29  23 W20G25    30.15F
REXBURG        SUNNY     62  29  28 SW10G18   30.13F
$$

IDZ006-010-011-018-031-032-212100-
CENTRAL IDAHO MOUNTAINS


CITY           SKY/WX    TMP DP  RH WIND       PRES   REMARKS
MCCALL         MOSUNNY   59  31  34 W13G20    30.16F
HAILEY         MOSUNNY   66  30  26 W10G20    30.14F
STANLEY          N/A     56  29  35 N8        30.20F
SALMON         SUNNY     62  34  35 N12       30.06F
CHALLIS        SUNNY     70  23  17 W20G25    30.10F
$$

IDZ002-004-006-007-026-212100-
NORTHERN IDAHO


CITY           SKY/WX    TMP DP  RH WIND       PRES   REMARKS
LEWISTON       SUNNY     64  27  24 W14G25    30.22S
LOWELL           N/A     61  39  44 CALM      30.22R
COEUR D`ALENE  MOSUNNY   56  25  30 W25G32    30.18
MULLAN PASS    MOSUNNY   38  21  50 W9G23     30.14R WCI  31
$$




USA.gov is the U.S. government's official web portal to all federal, state and local government web resources and services.